Home   Weather   Kagoshima   Past weeks
Flag for Japan

Past Weather in Kagoshima, Japan — Yesterday and Last 2 Weeks

Now
72 °F

Passing clouds.


Feels Like: 76 °F
Forecast: 79 / 62 °F
Wind: 7 mph from North

Location: Kagoshima

Current Time: Oct 14, 2019 at 10:12:52 pm

Latest Report: Oct 14, 2019 at 9:00 pm


Visibility: 13 mi

Pressure: 30.11 "Hg

Humidity: 58%

Dew Point: 56 °F

Location of KagoshimaLocation

Past Weather in Kagoshima — Graph

°F

Kagoshima Temperature Yesterday

Maximum temperature yesterday: 79 °F (at 4:00 pm)
Minimum temperature yesterday: 66 °F (at 6:00 am)
Average temperature yesterday: 73 °F

High & Low Weather Summary for the Past Weeks

 TemperatureHumidityPressure
High88 °F (Oct 11, 3:00 pm)95% (Oct 2, 11:00 am)30.11 "Hg (Oct 2, 11:00 am)
Low64 °F (Oct 9, 6:00 am)35% (Oct 9, 4:00 pm)29.56 "Hg (Oct 12, 4:00 am)
Average77 °F71%29.93 "Hg
* Reported Sep 29 8:00 pm — Oct 14 8:00 pm, Kagoshima. Weather by CustomWeather, © 2019

Note: Actual official high and low records may vary slightly from our data, if they occured in-between our weather recording intervals... More about our weather records

Advertising

Kagoshima Weather History for the Previous 24 Hours

Scroll right to see more
 ConditionsComfort  
Time TempWeatherWind HumidityBarometerVisibility
8:00 pm
Mon, Oct 14
72 °FMild.7 mph55%30.11 "HgN/A
7:00 pm73 °FMild.8 mph56%30.10 "HgN/A
6:00 pm75 °FPassing clouds.6 mph58%30.08 "Hg12 mi
5:00 pm77 °FMild.8 mph56%30.05 "HgN/A
4:00 pm79 °FWarm.10 mph54%30.04 "HgN/A
3:00 pm78 °FPassing clouds.6 mph63%30.03 "Hg9 mi
2:00 pm77 °FWarm.7 mph64%30.04 "HgN/A
1:00 pm77 °FWarm.5 mph62%30.06 "HgN/A
12:00 pm78 °FPartly sunny.7 mph63%30.07 "Hg9 mi
11:00 am76 °FMild.5 mph63%30.09 "HgN/A
10:00 am75 °FMild.3 mph64%30.10 "HgN/A
9:00 am74 °FPassing clouds.5 mph69%30.10 "Hg12 mi
8:00 am69 °FMild.7 mph76%30.09 "HgN/A
7:00 am68 °FMild.5 mph78%30.08 "HgN/A
6:00 am67 °FPassing clouds.8 mph80%30.07 "Hg12 mi
5:00 am68 °FMild.6 mph78%30.06 "HgN/A
4:00 am68 °FMild.6 mph75%30.05 "HgN/A
3:00 am68 °FPassing clouds.8 mph78%30.05 "Hg9 mi
2:00 am69 °FMild.6 mph80%30.05 "HgN/A
1:00 am70 °FMild.6 mph76%30.05 "HgN/A
12:00 am72 °FMild.5 mph73%30.05 "HgN/A
11:00 pm
Sun, Oct 13
74 °FMild.5 mph69%30.05 "HgN/A
Weather by CustomWeather, © 2019

See weather overview